GFSFLT2_850_spd_117.txt.gz
Wind_Speed
14 14 16 23 24 22 21 20 19 18 18 18 18 17 16 14 13 13 12 11 10 9 9 9 9 8 7 6 5 5 5 7
15 16 16 22 25 24 22 21 20 19 19 19 19 18 17 17 16 16 15 14 13 12 11 11 11 10 8 8 7 7 6 6
14 19 16 19 27 26 25 23 22 21 21 21 20 20 20 19 18 18 17 16 15 15 13 13 12 12 11 10 9 8 7 7
13 12 16 19 29 28 27 25 25 24 23 23 22 21 20 20 19 20 19 19 17 17 16 15 15 14 12 11 10 10 7 10
19 15 14 17 28 30 28 27 26 25 24 24 23 22 21 22 21 21 22 21 21 21 20 19 17 16 14 12 10 7 9 12
15 17 16 20 19 27 25 26 27 27 26 26 25 25 24 23 23 22 23 22 22 23 23 20 18 16 16 15 12 10 7 15
14 17 18 20 21 23 21 24 25 29 28 27 26 27 26 24 24 22 19 21 19 18 23 23 18 15 14 16 15 13 12 15
8 12 8 11 16 23 23 22 21 20 22 24 26 28 27 27 26 26 26 22 20 19 16 21 19 17 14 15 18 19 18 18
11 10 7 7 13 17 26 20 23 25 22 24 26 24 25 26 28 27 27 24 21 20 19 18 20 23 22 20 21 23 24 23
8 4 3 3 3 9 16 26 32 26 29 30 31 28 27 28 29 31 28 26 27 25 24 22 20 24 23 22 23 24 22 20
5 6 12 12 10 14 16 21 21 22 24 27 32 28 27 33 36 34 34 35 33 31 27 26 25 27 25 23 22 24 23 19
8 10 13 14 16 16 19 22 23 23 26 26 28 30 29 31 36 41 38 37 36 36 33 30 28 27 28 25 23 21 21 21
5 8 10 13 13 14 17 19 25 28 22 26 29 31 35 34 33 37 40 42 45 37 36 32 31 29 26 25 23 21 21 22
4 5 10 12 13 14 16 21 23 24 29 26 23 33 29 38 37 38 41 43 42 49 40 37 32 33 31 28 21 24 29 28
7 10 12 14 16 18 18 18 21 25 28 33 29 29 28 32 39 40 43 41 41 42 44 43 40 38 37 27 15 17 23 32
11 12 15 16 18 20 21 22 24 24 26 29 33 35 34 28 33 37 45 43 42 40 42 42 45 41 40 38 32 16 14 10
14 16 18 20 21 21 23 25 26 29 31 31 32 34 40 37 32 33 39 45 45 41 45 44 40 44 45 45 44 34 20 18
15 18 22 23 24 25 25 26 27 29 31 34 35 35 39 43 45 37 35 41 46 46 45 46 42 42 44 44 48 45 43 25
21 24 27 30 29 28 28 28 29 31 32 33 35 39 41 41 44 48 41 37 46 47 44 43 40 43 45 43 46 47 47 41
24 26 28 29 29 30 30 30 30 31 33 35 38 40 42 43 44 46 48 38 37 48 44 42 42 42 42 46 42 45 46 39

GFSFLT2_850_spd_120.txt.gz
Wind_Speed
10 11 11 22 23 23 22 21 21 20 20 20 20 19 18 17 16 15 14 13 12 11 10 9 10 9 9 9 10 10 8 8
9 13 16 18 25 25 24 22 22 21 20 21 21 21 19 18 17 17 16 15 14 13 11 10 11 11 10 10 11 11 9 9
11 12 14 18 23 27 27 25 24 22 22 22 23 23 23 22 21 19 19 18 16 15 14 12 12 12 11 11 11 10 11 12
15 17 14 16 20 28 30 28 28 27 25 24 25 25 24 24 23 22 22 21 20 19 17 16 14 14 13 13 12 11 12 13
17 21 18 16 16 25 31 31 29 28 27 26 26 26 26 26 25 26 26 25 24 23 21 20 17 16 15 14 13 12 14 14
16 20 20 17 15 14 28 28 29 29 28 27 27 28 28 29 28 28 28 28 27 26 24 21 19 18 17 16 15 14 13 16
11 16 20 20 17 14 18 27 28 28 27 28 29 30 31 30 31 30 30 30 29 28 27 24 22 21 20 19 18 17 15 16
17 19 18 17 19 17 19 21 23 28 29 31 32 33 33 33 33 32 31 29 26 27 24 22 24 23 21 19 19 17 17 17
17 20 21 19 18 19 20 26 23 26 28 28 26 32 35 35 34 34 34 32 27 25 25 24 21 24 22 20 18 18 18 19
14 12 10 8 8 11 17 21 29 31 29 26 30 37 36 31 32 35 35 33 32 29 29 28 26 24 26 24 23 21 22 23
12 10 9 8 8 10 14 16 22 28 29 34 32 58 40 31 32 31 35 35 35 34 33 31 30 28 27 22 24 26 26 25
14 11 10 11 13 14 15 17 21 24 24 19 23 29 35 54 41 32 36 36 39 40 37 35 34 31 27 28 23 23 23 24
8 7 7 8 10 12 15 17 18 23 28 23 19 18 27 32 34 36 36 37 41 42 42 39 37 35 33 31 27 26 24 24
3 4 7 10 12 12 13 17 20 22 24 26 29 26 22 25 26 34 38 38 38 46 45 37 38 34 38 32 21 28 30 29
7 8 9 10 13 17 16 17 18 23 25 27 27 29 30 27 25 25 33 39 45 42 48 39 40 31 36 33 13 14 26 32
7 8 9 11 14 18 21 23 25 24 26 28 28 28 30 34 34 31 27 30 36 39 41 42 45 38 44 34 37 19 13 12
10 11 12 14 15 18 21 24 27 29 30 31 30 29 30 32 33 37 37 32 29 36 37 40 40 42 38 41 39 43 29 23
14 16 18 19 20 21 23 25 28 31 33 34 35 33 32 31 33 36 38 38 35 32 34 38 41 43 41 48 41 38 36 32
18 19 21 22 24 24 25 26 28 31 32 35 37 37 36 34 35 35 38 39 40 38 36 39 40 42 40 44 40 41 46 41
23 24 24 26 27 27 27 27 29 30 32 34 36 38 38 37 37 39 40 40 41 39 39 35 42 42 43 45 46 46 50 50

GFSFLT2_850_spd_123.txt.gz
Wind_Speed
7 10 11 12 22 23 22 22 22 22 22 21 22 22 21 19 18 18 17 16 15 14 13 13 12 12 11 11 13 12 11 11
6 8 11 12 17 23 23 23 23 23 23 24 24 24 24 22 20 19 19 19 17 16 15 14 13 13 12 12 13 13 13 12
7 8 10 11 14 21 24 25 25 25 25 25 25 26 26 24 23 21 21 20 19 18 17 16 14 14 14 14 14 14 14 13
8 9 11 14 15 18 25 27 28 28 28 26 26 26 26 25 24 23 22 22 21 20 19 18 17 16 16 16 16 15 17 16
8 11 14 15 16 17 21 28 29 30 29 28 27 26 27 28 27 26 26 26 26 25 23 23 20 18 18 18 17 17 18 18
15 14 17 16 18 17 16 24 30 30 30 28 28 28 29 30 29 28 28 28 28 28 27 25 22 21 20 19 19 19 19 20
22 19 17 20 20 19 19 18 26 27 28 28 28 29 29 30 30 30 30 30 30 30 29 28 26 24 23 22 22 21 21 20
20 18 18 19 19 19 19 18 16 24 27 29 30 29 29 30 31 30 31 31 31 31 31 30 29 27 26 25 25 24 24 23
13 19 21 21 19 19 20 21 22 25 32 31 29 28 29 30 31 31 31 31 31 31 31 31 30 29 30 29 26 26 27 25
15 18 21 20 19 18 17 18 20 25 30 27 28 28 29 32 32 30 29 32 34 33 32 30 32 33 31 31 29 26 26 25
18 17 16 17 16 13 12 13 14 15 17 19 21 31 33 40 44 30 28 28 37 37 36 34 34 36 36 30 31 29 28 27
15 14 14 13 13 13 13 14 16 18 19 16 18 21 22 25 35 53 46 47 38 35 37 35 36 36 36 35 32 32 32 32
8 6 6 7 9 10 12 14 16 18 21 19 17 20 17 19 22 28 39 56 48 36 36 37 36 37 37 36 35 34 33 33
6 3 1 3 4 6 9 10 11 15 16 17 17 19 20 22 15 22 26 49 52 50 47 41 38 37 36 32 30 34 38 36
12 12 10 8 7 7 8 10 12 17 19 21 20 20 21 20 21 22 22 22 32 42 43 44 40 39 42 35 17 20 26 33
14 14 15 14 14 13 14 17 18 18 21 22 22 23 24 25 24 25 26 28 29 28 31 42 44 44 38 25 55 43 12 21
16 16 18 18 17 17 17 18 21 23 25 26 26 25 26 27 28 28 29 28 30 31 29 31 34 40 48 39 41 41 43 39
23 22 24 23 22 21 21 22 22 24 26 28 29 29 28 27 29 30 31 31 31 31 31 33 31 33 39 45 44 45 44 39
29 27 27 26 24 23 24 25 25 26 26 27 30 31 30 28 28 30 31 33 34 35 35 35 35 31 34 40 41 42 43 38
28 28 28 28 27 26 26 27 28 27 27 28 29 30 30 30 30 29 30 33 35 37 38 38 38 37 34 39 41 41 46 47

GFSFLT2_850_spd_129.txt.gz
Wind_Speed
4 8 11 13 14 17 19 20 21 20 20 21 22 21 20 19 18 16 15 15 15 15 14 14 14 13 13 12 11 11 11 10
7 8 10 12 13 16 19 20 20 20 20 21 22 22 22 21 20 19 17 17 16 16 15 15 14 14 14 13 13 13 13 12
11 10 10 10 10 12 15 18 20 20 21 22 23 24 25 24 23 21 20 19 18 17 16 15 15 14 14 15 15 14 14 14
12 13 12 12 11 12 12 14 18 21 22 23 25 26 26 26 25 24 22 21 20 20 18 16 16 16 16 17 18 16 16 16
16 16 14 14 14 14 15 15 16 19 22 23 25 27 27 28 28 27 25 23 23 22 21 20 20 19 18 19 19 18 19 19
17 17 17 17 17 18 18 18 17 18 19 22 24 26 28 28 29 29 27 26 26 25 25 24 23 22 21 20 21 21 21 21
17 18 19 21 22 21 21 21 20 20 19 19 22 24 23 24 26 28 28 26 26 27 28 26 26 27 25 24 23 22 22 23
16 18 18 19 18 20 21 22 21 20 17 18 20 22 23 24 25 23 24 23 24 27 28 28 28 28 27 28 26 24 24 24
14 15 15 14 11 11 16 16 16 17 17 18 19 22 23 23 25 28 28 21 20 23 26 28 29 30 29 28 27 27 27 26
4 7 10 10 9 7 11 13 13 14 16 18 19 22 24 26 28 28 32 36 28 21 23 27 29 31 30 29 28 28 28 28
1 0 2 4 7 7 7 7 8 9 9 10 11 14 17 20 26 33 33 34 34 41 36 29 35 34 31 29 28 27 27 27
8 5 3 3 3 5 6 6 8 9 10 11 12 13 15 16 19 23 28 31 32 38 45 42 41 29 25 24 25 27 28 29
13 11 9 6 2 5 7 8 9 9 10 11 13 14 15 18 22 24 24 24 23 28 37 45 49 42 33 35 36 35 29 28
18 18 17 15 13 9 8 9 11 12 13 13 13 14 16 17 19 22 25 24 25 24 26 32 36 38 42 33 32 35 33 36
21 20 19 18 16 16 14 11 11 13 14 16 16 17 17 19 19 21 23 25 27 28 27 29 32 33 34 31 19 26 28 21
20 20 21 20 20 19 19 19 20 19 21 21 21 20 20 20 21 22 23 25 26 29 31 31 31 35 32 32 38 28 13 18
19 20 23 23 22 22 22 22 21 21 23 24 24 24 23 20 21 25 27 26 26 28 30 33 34 33 34 32 40 44 36 32
20 25 26 28 29 27 26 24 24 25 23 23 24 25 25 25 23 23 26 29 28 28 31 33 35 37 37 37 31 29 42 40
18 20 22 25 28 27 26 27 25 24 26 27 26 25 25 26 26 26 26 27 30 31 30 33 34 36 38 39 39 39 38 38
18 20 21 23 23 23 23 23 24 25 25 26 26 26 27 27 27 28 28 28 29 31 33 32 34 35 37 40 42 42 36 37

GFSFLT2_850_spd_132.txt.gz
Wind_Speed
4 8 11 13 14 16 17 18 18 18 18 19 20 20 20 19 19 17 16 15 14 13 13 13 13 13 13 12 12 10 8 8
8 7 9 12 13 14 15 17 18 19 19 19 21 21 21 21 21 21 19 17 15 15 14 14 14 14 14 14 14 14 13 10
9 9 10 11 12 13 14 16 18 20 20 20 21 22 23 24 24 24 22 20 17 16 15 15 15 16 16 16 16 15 12 12
8 9 11 12 13 13 14 15 15 18 20 20 22 22 19 20 22 26 24 22 20 19 18 18 17 14 14 18 19 14 13 14
7 9 13 13 10 11 11 14 15 16 18 18 17 20 20 21 20 23 27 25 24 23 22 22 17 15 15 15 15 15 15 15
13 14 14 15 14 10 14 18 19 19 19 19 22 22 24 24 21 22 22 21 24 23 23 22 20 19 19 18 18 17 16 16
10 14 15 16 17 17 18 19 20 21 20 20 19 23 23 25 27 26 24 24 23 23 23 22 22 21 20 20 21 20 20 19
7 9 12 15 16 15 13 16 18 17 16 18 19 20 22 24 24 25 25 26 27 27 25 24 25 22 21 23 24 23 22 22
8 7 8 10 12 11 9 12 15 16 16 18 19 19 19 19 20 23 24 23 25 24 28 28 26 26 26 24 27 30 28 25
7 7 6 6 6 6 8 12 12 12 14 17 21 20 21 22 22 20 21 23 24 27 29 30 29 25 26 26 28 30 32 31
7 7 6 6 3 4 5 5 6 8 10 13 14 17 20 23 23 26 24 23 25 27 27 29 33 38 38 30 32 36 37 32
12 13 12 8 6 3 3 5 7 9 11 12 12 13 14 14 16 18 19 20 22 22 23 25 32 35 31 32 41 41 40 38
11 11 12 11 10 7 6 9 7 7 12 14 15 16 18 18 20 21 22 21 22 21 23 25 25 31 41 44 46 55 45 29
12 12 13 14 13 12 11 11 13 14 13 14 16 17 18 19 20 20 23 24 24 22 22 25 25 26 27 31 30 41 38 39
11 13 13 13 13 14 13 12 11 10 15 16 17 18 19 20 21 22 23 24 25 25 24 24 24 30 30 29 19 24 29 31
15 16 16 16 18 17 15 13 13 15 16 18 20 20 20 20 21 24 26 26 27 24 22 25 28 31 32 33 36 33 22 23
15 17 20 19 18 19 18 18 17 16 17 19 19 21 21 22 23 24 24 26 28 29 28 27 24 25 24 28 37 32 36 36
14 16 18 21 22 21 20 19 20 20 19 21 19 19 19 20 23 24 25 25 27 29 29 30 31 33 32 26 30 36 28 33
13 15 16 18 19 19 17 19 18 18 19 18 20 20 19 20 22 23 24 25 26 29 31 30 29 32 35 37 29 28 44 38
12 13 15 17 18 19 18 19 17 16 17 18 17 18 19 21 21 22 23 24 26 27 30 33 33 31 33 38 41 39 29 38

GFSFLT2_850_spd_135.txt.gz
Wind_Speed
2 6 7 9 10 12 13 14 15 16 17 18 19 19 20 21 21 20 19 17 15 14 14 15 15 14 14 13 12 10 8 9
3 4 7 9 9 11 12 14 15 17 18 19 20 21 22 23 23 23 21 20 18 16 16 17 17 16 15 14 14 13 11 10
5 5 5 7 8 10 12 14 16 17 19 20 20 21 22 25 26 26 24 23 21 20 19 18 18 18 17 16 16 15 9 9
5 6 6 8 7 10 9 10 12 14 15 17 20 22 18 19 20 24 27 26 24 24 21 20 21 19 16 16 18 14 11 12
7 8 4 8 9 11 10 10 10 13 13 14 16 17 20 20 22 24 29 30 29 28 27 26 25 22 16 19 11 12 12 14
8 10 11 12 13 11 11 13 16 15 14 15 17 19 21 22 24 23 26 24 29 26 27 27 27 21 19 18 19 16 14 14
9 9 8 10 13 16 16 12 13 12 14 14 17 18 20 21 23 25 27 28 29 32 34 29 28 26 25 26 23 20 18 18
7 8 7 7 9 11 13 14 15 13 15 17 18 19 22 22 24 24 27 28 30 32 30 33 29 28 29 27 24 23 25 23
9 8 7 5 5 7 9 12 12 13 16 19 19 19 20 22 21 24 23 25 28 29 29 36 26 26 28 27 28 29 25 26
14 12 10 7 5 6 6 8 11 11 13 14 16 17 20 21 21 24 26 26 26 22 26 27 21 22 23 29 29 30 29 29
13 13 13 11 8 5 8 8 8 8 8 11 11 13 15 18 17 18 23 26 25 14 18 16 18 23 27 30 28 31 32 34
13 12 11 11 10 8 6 7 7 7 9 13 13 14 14 12 12 16 16 15 17 17 19 20 19 22 28 30 33 39 39 36
11 13 14 12 12 12 10 11 9 9 11 16 16 17 18 16 16 16 16 17 19 20 16 19 24 23 26 29 30 33 35 35
10 11 13 14 13 13 12 11 10 9 12 13 16 17 18 18 19 19 18 18 19 18 16 16 18 21 25 27 25 27 31 37
11 12 14 15 15 14 14 11 10 11 14 13 16 17 17 19 19 19 21 19 16 17 17 17 19 18 17 18 13 19 23 26
9 10 12 13 13 12 14 13 14 15 15 16 18 17 18 18 19 21 22 21 21 19 15 18 17 21 20 20 30 29 23 27
9 10 12 14 16 15 13 13 13 14 16 19 17 18 17 16 18 22 21 22 23 24 23 21 21 22 21 19 21 26 34 28
9 10 12 14 16 16 15 15 15 15 17 17 16 16 16 16 21 22 24 23 22 24 25 26 26 25 28 26 22 22 23 23
8 10 11 14 15 15 15 15 15 14 16 16 18 17 17 18 21 22 22 23 24 24 25 26 27 28 28 32 30 25 26 27
7 9 10 12 14 14 15 15 15 13 15 16 15 17 17 19 21 20 20 21 22 23 25 26 26 28 29 30 34 35 32 28